CW9676 Weather Reports


time (UTC)temp
F
wind
direction
speed
knots
gust
knots
rain 1hr
in
rain 24hr
in
rain mn
in
humidity
%
barometer
mb
20260901200709 82 138 2.6 8.7 0.00 0.00 0.00 38 1008.4
20260901195721 81 107 2.6 8.7 0.00 0.00 0.00 39 1008.4
20260901194711 79 137 3.5 8.7 0.00 0.00 0.00 41 1008.6
20260901193638 79 217 1.7 11.3 0.00 0.00 0.00 42 1008.7
20260901192604 78 162 6.1 11.3 0.00 0.00 0.00 43 1008.8
20260901191537 78 140 5.2 10.4 0.00 0.00 0.00 43 1008.8
20260901190538 79 184 3.5 8.7 0.00 0.00 0.00 42 1008.8
20260901185538 78 134 4.3 10.4 0.00 0.00 0.00 44 1008.9
20260901184601 78 151 4.3 10.4 0.00 0.00 0.00 44 1009.0
20260901183543 78 184 3.5 9.6 0.00 0.00 0.00 44 1009.0
20260901182550 77 50 3.5 8.7 0.00 0.00 0.00 45 1009.2
20260901181610 78 153 4.3 8.7 0.00 0.00 0.00 45 1009.2
20260901175522 79 122 3.5 7.8 0.00 0.00 0.00 42 1009.4
20260901173316 77 138 4.3 11.3 0.00 0.00 0.00 44 1009.4
20260901172248 77 197 5.2 11.3 0.00 0.00 0.00 45 1009.5
20260901171226 77 131 4.3 8.7 0.00 0.00 0.00 46 1009.6
20260901170230 76 4 5.2 9.6 0.00 0.00 0.00 49 1009.5
20260901165234 74 155 4.3 9.6 0.00 0.00 0.00 52 1009.5
20260901163120 73 149 3.5 7.8 0.00 0.00 0.00 51 1009.1
20260901162136 75 226 2.6 7.8 0.00 0.00 0.00 50 1009.0
20260901161152 74 148 3.5 8.7 0.00 0.00 0.00 52 1009.1
20260901160203 74 127 3.5 8.7 0.00 0.00 0.00 53 1009.1
20260901155154 72 164 3.5 7.0 0.00 0.00 0.00 56 1009.0
20260901154145 70 154 2.6 7.0 0.00 0.00 0.00 60 1008.9
20260901152039 68 219 3.5 7.0 0.00 0.00 0.00 62 1008.6
20260901151044 68 4 3.5 7.0 0.00 0.00 0.00 63 1008.5
20260901150038 68 215 2.6 7.0 0.00 0.00 0.00 64 1008.5
20260901141637 67 213 3.5 7.8 0.00 0.00 0.00 65 1008.4
20260901140629 67 177 2.6 5.2 0.00 0.00 0.00 65 1008.3
20260901135627 66 211 2.6 5.2 0.00 0.00 0.00 66 1008.3
20260901131152 64 213 3.5 8.7 0.00 0.00 0.00 68 1008.1
20260901130128 64 210 3.5 8.7 0.00 0.00 0.00 68 1007.9
20260901125100 64 224 2.6 4.3 0.00 0.00 0.00 68 1007.8
20260901124055 64 217 3.5 6.1 0.00 0.00 0.00 68 1007.8
20260901123059 63 238 3.5 6.1 0.00 0.00 0.00 70 1007.6
20260901122110 63 243 3.5 5.2 0.00 0.00 0.00 70 1007.6
20260901121126 63 231 2.6 5.2 0.00 0.00 0.00 70 1007.6
20260901120054 63 230 2.6 5.2 0.00 0.00 0.00 70 1007.6
20260901115112 63 211 3.5 5.2 0.00 0.00 0.00 70 1007.6
20260901114056 63 227 2.6 4.3 0.00 0.00 0.00 69 1007.5
20260901113036 64 196 1.7 4.3 0.00 0.00 0.00 68 1007.7
20260901110858 65 179 1.7 2.6 0.00 0.00 0.00 61 1007.5
20260901105842 65 248 0.9 1.7 0.00 0.00 0.00 61 1007.4
20260901104823 64 248 0.0 1.7 0.00 0.00 0.00 64 1007.3
20260901103750 64 248 0.9 1.7 0.00 0.00 0.00 65 1007.3
20260901102750 65 248 0.9 1.7 0.00 0.00 0.00 66 1007.4
20260901101733 65 214 0.9 1.7 0.00 0.00 0.00 66 1007.5
20260901100736 65 206 0.0 1.7 0.00 0.00 0.00 65 1007.5
20260901095757 65 175 0.9 1.7 0.00 0.00 0.00 65 1007.4
20260901094733 66 177 0.9 2.6 0.00 0.00 0.00 63 1007.6
20260901093704 66 215 0.9 2.6 0.00 0.00 0.00 61 1007.6
20260901092653 67 223 0.9 1.7 0.00 0.00 0.00 59 1007.6
20260901085416 67 240 3.5 6.1 0.00 0.00 0.00 60 1007.6
20260901084410 67 231 3.5 5.2 0.00 0.00 0.00 61 1007.5
20260901083342 67 219 2.6 4.3 0.00 0.00 0.00 62 1007.9
20260901082348 67 203 1.7 3.5 0.00 0.00 0.00 62 1008.1
20260901081339 67 211 1.7 4.3 0.00 0.00 0.00 62 1008.2
20260901075153 67 225 1.7 5.2 0.00 0.00 0.00 63 1008.2
20260901074134 67 237 2.6 5.2 0.00 0.00 0.00 63 1008.2
20260901073100 67 244 3.5 5.2 0.00 0.00 0.00 63 1008.2
20260901070959 66 234 2.6 5.2 0.00 0.00 0.00 64 1008.2
20260901065924 67 233 1.7 4.3 0.00 0.00 0.00 63 1008.3
20260901063819 67 130 0.0 2.6 0.00 0.00 0.00 63 1008.6
20260901062755 67 143 0.0 0.0 0.00 0.00 0.00 63 1008.7
20260901061725 67 165 2.6 5.2 0.00 0.00 0.00 62 1008.5
20260901060714 67 200 2.6 5.2 0.00 0.00 0.00 63 1008.2
20260901055735 67 202 1.7 6.1 0.00 0.00 0.00 63 1008.0
20260901054723 67 199 1.7 6.1 0.00 0.00 0.00 63 1008.3
20260901053653 67 180 1.7 4.3 0.00 0.00 0.00 63 1008.3
20260901051526 67 230 2.6 7.0 0.00 0.00 0.00 63 1008.5
20260901050551 67 151 3.5 8.7 0.00 0.00 0.00 62 1008.6
20260901045538 67 184 4.3 12.2 0.00 0.00 0.00 61 1008.8
20260901044556 67 165 7.0 12.2 0.00 0.00 0.00 61 1008.7
20260901042409 68 133 5.2 9.6 0.00 0.00 0.00 60 1008.6
20260901041427 69 140 1.7 3.5 0.00 0.00 0.00 60 1008.9
20260901040424 69 113 1.7 7.8 0.00 0.00 0.00 60 1008.6
20260901033222 71 186 4.3 9.6 0.00 0.00 0.00 50 1006.9
20260901032207 72 168 3.5 9.6 0.00 0.00 0.00 49 1006.9
20260901031215 72 186 2.6 7.8 0.00 0.00 0.00 48 1006.7
20260901030147 73 182 2.6 7.8 0.00 0.00 0.00 47 1006.2
20260901025127 73 233 4.3 7.8 0.00 0.00 0.00 47 1005.7
20260901024129 72 237 3.5 7.8 0.00 0.00 0.00 47 1005.6
20260901023129 72 210 4.3 8.7 0.00 0.00 0.00 47 1005.3
20260901022109 72 213 5.2 11.3 0.00 0.00 0.00 48 1005.2
20260901021037 72 242 7.0 11.3 0.00 0.00 0.00 48 1005.0
20260901020007 73 224 6.1 14.8 0.00 0.00 0.00 49 1004.8
20260901014935 73 200 7.8 14.8 0.00 0.00 0.00 49 1004.6
20260901013955 73 239 7.8 13.0 0.00 0.00 0.00 50 1004.4
20260901010634 74 214 6.1 13.9 0.00 0.00 0.00 49 1004.2
20260901005653 74 166 7.8 16.5 0.00 0.00 0.00 49 1004.5
20260901004649 75 183 8.7 16.5 0.00 0.00 0.00 48 1004.5
20260901003705 75 177 8.7 15.6 0.00 0.00 0.00 47 1004.5
20260901002647 76 221 7.8 15.6 0.00 0.00 0.00 46 1004.4
20260901001651 76 215 7.0 13.9 0.00 0.00 0.00 46 1004.4
20260901000630 77 175 7.8 16.5 0.00 0.00 0.00 45 1004.4
20260831234519 77 157 9.6 15.6 0.00 0.00 0.00 46 1004.4
20260831233459 79 163 8.7 18.2 0.00 0.00 0.00 44 1004.5
20260831232436 80 178 12.2 18.2 0.00 0.00 0.00 42 1004.4
20260831231440 81 164 10.4 19.1 0.00 0.00 0.00 41 1004.1
20260831230453 80 204 12.2 20.9 0.00 0.00 0.00 42 1004.0
20260831225446 81 163 11.3 21.7 0.00 0.00 0.00 40 1003.8
20260831224421 81 132 12.2 21.7 0.00 0.00 0.00 40 1004.0
20260831222306 83 100 12.2 19.1 0.00 0.00 0.00 37 1004.2
20260831220116 85 91 11.3 19.1 0.00 0.00 0.00 35 1004.4
20260831213958 85 72 11.3 19.1 0.00 0.00 0.00 36 1004.4
20260831213022 86 63 11.3 19.1 0.00 0.00 0.00 35 1004.9
20260831210834 84 90 7.8 17.4 0.00 0.00 0.00 35 1005.2
20260831204651 86 98 4.3 14.8 0.00 0.00 0.00 34 1005.4
20260831203658 85 80 5.2 12.2 0.00 0.00 0.00 33 1005.7
20260831202654 84 58 4.3 12.2 0.00 0.00 0.00 35 1006.0
20260831201622 84 55 6.1 12.2 0.00 0.00 0.00 34 1006.0